Find Starlink 36059

NORAD ID: 66904 Int'l Des: 2025-283 Owner: SPXS Country: US Constellation: starlink operational
LEOCIRCULAR

Current View

Loading 3D Globe...

About Starlink 36059

Description loading...

Upcoming Passes

Passes for default location (London). Set your location on the main map for personalized predictions.

Altitude History

Loading altitude history...

Two-Line Element Set

1 66904U 25283AC 26146.07907775 .00024875 00000-0 84920-3 0 9998
2 66904 53.1593 24.6403 0000949 86.2867 273.8242 15.30198336 27692
Epoch: May 26, 2026 • Age: 22 hours

Current Status

Altitude 488.9 km
Velocity 7.62 km/s
Sub-Earth Point -40.40°S, 102.41°E
Launch Date Dec 4, 2025
Age 0.4 years
Type internet

Technical Details

Classification Payload
Mass 575.00 kg
Dry Mass 530.00 kg
Total Mass 575.00 kg
Length 0.30 m
Diameter 4.10 m
Span 29.00 m
Shape Box + pan
Manufacturer SPXS
Bus Type Starlink V2MO
Phase Status In Orbit
Owner/State SPXS/US

Most Searched